This demonstration page uses our WeatherBlox Daily Observations layout. Learn more.

Left ArrowRight Arrow

Hourly Observations for May 28, 2019

Temp ( °F °C ) Dew Point ( °F °C ) Humidity (%) Winds ( mph kmh ) Pressure ( in mb ) Visibility ( mi km ) Precip ( " mm )
12:35 am 00:35 Cloudy with Thunderstorms 62 16.7 57 13.9 84 84 NNE 16 26 29.74 1007 10 16 0.00 0.03
12:52 am 00:52 Cloudy with Thunderstorms 61 16.1 56 13.3 84 84 NNE 14 22 29.72 1007 10 16 0.01 0.25
12:59 am 00:59 Cloudy with Light Rain 61 16.1 56 13.3 84 84 NNE 15 24 29.72 1006 10 16 0.00 0.03
1:18 am 01:18 Cloudy with Light Rain 60 15.6 56 13.3 86 86 NNE 16 26 29.72 1006 10 16 0.01 0.25
1:47 am 01:47 Cloudy with Light Rain 61 16 55 13 83 83 VRB 5 7 29.73 1007 7 11 0.01 0.25
1:52 am 01:52 Cloudy with Thunderstorms 59 15 55 12.8 87 87 NE 9 15 29.72 1007 5 8 0.09 2.29
2:18 am 02:18 Cloudy with Strong Thunderstorms 58 14.4 56 13.3 93 93 NE 21 33 29.68 1005 2 2 0.26 6.60
2:24 am 02:24 Cloudy with Thunderstorms 58 14.4 56 13.3 93 93 ESE 10 17 29.71 1006 4 6 0.32 8.13
2:36 am 02:36 Cloudy with Thunderstorms 59 15 55 12.8 87 87 VRB 6 9 29.70 1006 10 16 0.32 8.13
2:44 am 02:44 Cloudy 59 15 55 12.8 87 87 N 7 11 29.70 1006 10 16 0.32 8.13
2:52 am 02:52 Cloudy 59 15 55 12.8 87 87 NNE 8 13 29.70 1006 10 16 0.32 8.13
3:30 am 03:30 Cloudy 58 14.4 55 12.8 90 90 ENE 8 13 29.68 1005 10 16 0.00 0.00
3:52 am 03:52 Cloudy 58 14.4 54 12.2 87 87 E 12 19 29.67 1005 10 16 0.00 0.00
4:02 am 04:02 Cloudy with Light Rain 57 13.9 53 11.7 87 87 E 8 13 29.68 1005 10 16 0.00 0.03
4:11 am 04:11 Cloudy with Thunderstorms 57 13.9 53 11.7 87 87 ENE 8 13 29.68 1005 10 16 0.00 0.03
4:35 am 04:35 Cloudy with Strong Thunderstorms 57 13.9 54 12.2 90 90 WNW 21 33 29.77 1008 4 6 0.01 0.25
4:39 am 04:39 Cloudy with Strong Thunderstorms 57 13.9 54 12.2 90 90 W 24 39 29.79 1009 1 1 0.10 2.54
4:44 am 04:44 Cloudy with Strong Thunderstorms 56 13.3 54 12.2 93 93 W 8 13 29.76 1008 1 1 0.43 10.92
4:48 am 04:48 Cloudy with Strong Thunderstorms 55 13 54 12 94 94 W 10 17 29.77 1008 1 1 0.77 19.56
4:52 am 04:52 Cloudy with Strong Thunderstorms 55 12.8 54 12.2 96 96 NW 15 24 29.77 1008 2 2 0.89 22.61
5:00 am 05:00 Cloudy with Strong Thunderstorms 56 13.3 54 12.2 93 93 NNW 17 28 29.77 1008 3 4 0.06 1.52
5:04 am 05:04 Cloudy with Strong Thunderstorms 56 13.3 54 12.2 93 93 NNW 15 24 29.78 1008 3 5 0.15 3.81
5:15 am 05:15 Cloudy with Strong Thunderstorms 57 13.9 54 12.2 90 90 NNE 24 39 29.72 1006 4 6 0.26 6.60
5:37 am 05:37 Cloudy with Thunderstorms 57 13.9 53 11.7 87 87 VRB 6 9 29.72 1006 7 11 0.30 7.62
5:52 am 05:52 Cloudy with Thunderstorms 57 13.9 53 11.7 87 87 N 9 15 29.73 1007 10 16 0.31 7.87
6:04 am 06:04 Mostly Cloudy with Light Rain 57 13.9 53 11.7 87 87 NE 12 19 29.72 1006 10 16 0.01 0.25
6:40 am 06:40 Cloudy with Thunderstorms 57 13.9 53 11.7 87 87 ENE 17 28 29.72 1006 10 16 0.02 0.51
6:52 am 06:52 Cloudy with Thunderstorms 57 13.9 53 11.7 87 87 NNE 13 20 29.71 1006 5 8 0.03 0.76
7:02 am 07:02 Cloudy with Light Rain 57 13.9 54 12.2 90 90 NNW 14 22 29.75 1007 7 11 0.01 0.25
7:29 am 07:29 Cloudy with Light Rain 58 14.4 54 12.2 87 87 NNW 26 43 29.77 1008 10 16 0.02 0.51
7:37 am 07:37 Cloudy with Light Rain 57 13.9 54 12.2 90 90 NNW 21 33 29.80 1009 10 16 0.02 0.51
7:52 am 07:52 Mostly Cloudy with Light Rain 57 13.9 54 12.2 90 90 NE 20 31 29.68 1005 10 16 0.02 0.51
7:59 am 07:59 Mostly Cloudy with Light Rain 57 13.9 53 11.7 87 87 ENE 21 33 29.70 1006 10 16 0.00 0.03
8:52 am 08:52 Mostly Cloudy 56 13.3 53 11.7 90 90 ESE 13 20 29.68 1005 10 16 0.00 0.03
9:26 am 09:26 Cloudy 59 15 53 11.7 81 81 ENE 7 11 29.70 1006 10 16 0.00 0.00
9:52 am 09:52 Cloudy 59 15 54 12.2 83 83 E 10 17 29.69 1005 10 16 0.00 0.00
10:52 am 10:52 Cloudy 63 17.2 56 13.3 78 78 ENE 13 20 29.67 1005 10 16 0.00 0.00
11:44 am 11:44 Cloudy 65 18.3 57 13.9 76 76 ENE 12 19 29.66 1004 10 16 0.00 0.00
11:52 am 11:52 Cloudy 64 17.8 57 13.9 78 78 E 13 20 29.70 1006 10 16 0.00 0.00
12:52 pm 12:52 Cloudy 64 17.8 57 13.9 78 78 Calm 29.72 1007 10 16 0.00 0.00
1:52 pm 13:52 Cloudy with Light Rain 63 17.2 58 14.4 84 84 ENE 20 31 29.59 1002 10 16 0.00 0.03
2:16 pm 14:16 Cloudy 63 17.2 58 14.4 84 84 NNE 17 28 29.64 1004 10 16 0.00 0.03
2:52 pm 14:52 Cloudy 63 17.2 58 14.4 84 84 NNE 16 26 29.63 1004 10 16 0.00 0.03
3:52 pm 15:52 Cloudy 62 16.7 57 13.9 84 84 NNE 18 30 29.62 1003 10 16 0.00 0.00
4:52 pm 16:52 Cloudy 62 16.7 57 13.9 84 84 NNE 16 26 29.64 1004 10 16 0.00 0.00
5:52 pm 17:52 Cloudy 62 16.7 56 13.3 80 80 NE 16 26 29.60 1003 10 16 0.00 0.00
6:52 pm 18:52 Cloudy 62 16.7 56 13.3 80 80 NE 16 26 29.63 1003 10 16 0.00 0.00
7:52 pm 19:52 Cloudy 62 16.7 56 13.3 80 80 NE 8 13 29.66 1004 10 16 0.00 0.00
8:52 pm 20:52 Cloudy 62 16.7 56 13.3 80 80 NNE 13 20 29.63 1003 10 16 0.00 0.00
9:52 pm 21:52 Cloudy with Light Rain 61 16.1 57 13.9 87 87 NNE 9 15 29.66 1004 10 16 0.00 0.03
9:57 pm 21:57 Cloudy with Nearby Thunderstorms 62 16.7 57 13.9 84 84 E 6 9 29.67 1005 10 16 0.00 0.03
10:14 pm 22:14 Cloudy with Light Rain 61 16.1 57 13.9 87 87 NE 9 15 29.64 1004 10 16 0.00 0.03
10:52 pm 22:52 Cloudy 60 15.6 57 13.9 90 90 VRB 6 9 29.65 1004 10 16 0.01 0.25
11:24 pm 23:24 Cloudy 60 15.6 57 13.9 90 90 NW 9 15 29.67 1005 10 16 0.00 0.00
11:52 pm 23:52 Cloudy 61 16.1 57 13.9 87 87 N 9 15 29.67 1005 10 16 0.00 0.00

Powered by AerisWeather